| time (UTC) | temp C | wind direction | speed KPH | gust KPH | rain 1hr cm | rain 24hr cm | rain mn cm | humidity % | barometer mb |
| 20260504050016 | 5 | 0.0 | 0.0 | 0.00 | 0.00 | 0.00 | 81 | 1016.6 | |
| 20260504045016 | 5 | 0.0 | 0.0 | 0.00 | 0.00 | 0.00 | 80 | 1016.5 | |
| 20260504044017 | 5 | 0.0 | 0.0 | 0.00 | 0.00 | 0.00 | 79 | 1016.5 | |
| 20260504043016 | 5 | 0.0 | 0.0 | 0.00 | 0.00 | 0.00 | 79 | 1016.4 | |
| 20260504042016 | 5 | 0.0 | 0.0 | 0.00 | 0.00 | 0.00 | 79 | 1016.3 | |
| 20260504041036 | 5 | 0.0 | 0.0 | 0.00 | 0.00 | 0.00 | 79 | 1016.3 | |
| 20260504040016 | 5 | 0.0 | 0.0 | 0.00 | 0.00 | 0.00 | 79 | 1016.2 | |
| 20260504035016 | 5 | 0.0 | 0.0 | 0.00 | 0.00 | 0.00 | 77 | 1016.0 | |
| 20260504034016 | 5 | 0.0 | 0.0 | 0.00 | 0.00 | 0.00 | 77 | 1016.1 | |
| 20260504033016 | 5 | 0.0 | 0.0 | 0.00 | 0.00 | 0.00 | 76 | 1015.9 | |
| 20260504032016 | 5 | 0.0 | 0.0 | 0.00 | 0.00 | 0.00 | 77 | 1015.9 | |
| 20260504031016 | 6 | 0.0 | 0.0 | 0.00 | 0.00 | 0.00 | 76 | 1015.9 | |
| 20260504030016 | 6 | 0.0 | 0.0 | 0.00 | 0.00 | 0.00 | 75 | 1016.0 | |
| 20260504025016 | 6 | 0.0 | 0.0 | 0.00 | 0.00 | 0.00 | 74 | 1016.0 | |
| 20260504024016 | 6 | 0.0 | 0.0 | 0.00 | 0.00 | 0.00 | 72 | 1016.1 | |
| 20260504023016 | 6 | 0.0 | 0.0 | 0.00 | 0.00 | 0.00 | 72 | 1016.0 | |
| 20260504022016 | 7 | 0.0 | 0.0 | 0.00 | 0.00 | 0.00 | 69 | 1015.9 | |
| 20260504021016 | 7 | 0.0 | 0.0 | 0.00 | 0.00 | 0.00 | 68 | 1015.8 | |
| 20260504020016 | 7 | 0.0 | 0.0 | 0.00 | 0.00 | 0.00 | 66 | 1015.6 | |
| 20260504015016 | 7 | 0.0 | 0.0 | 0.00 | 0.00 | 0.00 | 66 | 1015.7 | |
| 20260504014036 | 8 | 0.0 | 0.0 | 0.00 | 0.00 | 0.00 | 64 | 1015.5 | |
| 20260504013016 | 8 | 0.0 | 0.0 | 0.00 | 0.00 | 0.00 | 62 | 1015.1 | |
| 20260504012017 | 9 | 0.0 | 0.0 | 0.00 | 0.00 | 0.00 | 62 | 1015.0 | |
| 20260504011016 | 10 | 0.0 | 0.0 | 0.00 | 0.00 | 0.00 | 60 | 1015.1 | |
| 20260504010016 | 10 | 0.0 | 0.0 | 0.00 | 0.00 | 0.00 | 57 | 1014.7 | |
| 20260504005016 | 11 | 0.0 | 0.0 | 0.00 | 0.00 | 0.00 | 54 | 1014.7 | |
| 20260504004036 | 11 | 0.0 | 0.0 | 0.00 | 0.00 | 0.00 | 52 | 1014.7 | |
| 20260504003017 | 12 | 0.0 | 0.0 | 0.00 | 0.00 | 0.00 | 49 | 1014.4 | |
| 20260504002036 | 12 | 0.0 | 1.6 | 0.00 | 0.00 | 0.00 | 45 | 1014.3 | |
| 20260504001036 | 13 | 0.0 | 0.0 | 0.00 | 0.00 | 0.00 | 43 | 1014.3 | |
| 20260504000016 | 13 | 0.0 | 0.0 | 0.00 | 0.00 | 0.00 | 41 | 1014.3 | |
| 20260503235016 | 14 | 0.0 | 0.0 | 0.00 | 0.00 | 0.00 | 37 | 1014.2 | |
| 20260503234036 | 15 | 0.0 | 0.0 | 0.00 | 0.00 | 0.00 | 34 | 1014.2 | |
| 20260503233036 | 15 | 0.0 | 0.0 | 0.00 | 0.00 | 0.00 | 34 | 1014.2 | |
| 20260503232016 | 16 | 0.0 | 1.6 | 0.00 | 0.00 | 0.00 | 33 | 1014.4 | |
| 20260503231016 | 16 | 0.0 | 1.6 | 0.00 | 0.00 | 0.00 | 31 | 1014.4 | |
| 20260503230036 | 16 | 0.0 | 0.0 | 0.00 | 0.00 | 0.00 | 29 | 1014.5 | |
| 20260503225016 | 16 | 0.0 | 0.0 | 0.00 | 0.00 | 0.00 | 31 | 1014.5 | |
| 20260503224016 | 16 | 0.0 | 0.0 | 0.00 | 0.00 | 0.00 | 28 | 1014.6 | |
| 20260503223016 | 17 | 270 | 3.2 | 11.3 | 0.00 | 0.00 | 0.00 | 28 | 1014.8 |
| 20260503222016 | 17 | 0.0 | 1.6 | 0.00 | 0.00 | 0.00 | 28 | 1014.7 | |
| 20260503221036 | 17 | 0.0 | 0.0 | 0.00 | 0.00 | 0.00 | 29 | 1014.8 | |
| 20260503220016 | 16 | 0.0 | 1.6 | 0.00 | 0.00 | 0.00 | 30 | 1014.8 | |
| 20260503215016 | 17 | 0.0 | 3.2 | 0.00 | 0.00 | 0.00 | 27 | 1014.8 | |
| 20260503214016 | 17 | 0.0 | 4.8 | 0.00 | 0.00 | 0.00 | 26 | 1015.0 | |
| 20260503213016 | 17 | 0.0 | 3.2 | 0.00 | 0.00 | 0.00 | 29 | 1015.2 | |
| 20260503212015 | 17 | 270 | 3.2 | 8.0 | 0.00 | 0.00 | 0.00 | 27 | 1015.2 |
| 20260503211016 | 17 | 270 | 1.6 | 4.8 | 0.00 | 0.00 | 0.00 | 30 | 1015.1 |
| 20260503210016 | 17 | 0.0 | 3.2 | 0.00 | 0.00 | 0.00 | 31 | 1015.4 | |
| 20260503205016 | 17 | 0.0 | 1.6 | 0.00 | 0.00 | 0.00 | 29 | 1015.4 | |
| 20260503204015 | 16 | 0.0 | 3.2 | 0.00 | 0.00 | 0.00 | 28 | 1015.5 | |
| 20260503203016 | 16 | 0.0 | 1.6 | 0.00 | 0.00 | 0.00 | 29 | 1015.5 | |
| 20260503202036 | 16 | 248 | 1.6 | 3.2 | 0.00 | 0.00 | 0.00 | 28 | 1015.9 |
| 20260503201016 | 16 | 0.0 | 0.0 | 0.00 | 0.00 | 0.00 | 30 | 1016.0 | |
| 20260503200016 | 16 | 0 | 4.8 | 6.4 | 0.00 | 0.00 | 0.00 | 30 | 1016.0 |
| 20260503195016 | 16 | 248 | 1.6 | 9.7 | 0.00 | 0.00 | 0.00 | 30 | 1016.3 |
| 20260503194016 | 16 | 0.0 | 1.6 | 0.00 | 0.00 | 0.00 | 31 | 1016.4 | |
| 20260503193036 | 16 | 248 | 1.6 | 4.8 | 0.00 | 0.00 | 0.00 | 30 | 1016.6 |
| 20260503192015 | 15 | 225 | 1.6 | 6.4 | 0.00 | 0.00 | 0.00 | 32 | 1016.8 |
| 20260503191016 | 15 | 270 | 3.2 | 6.4 | 0.00 | 0.00 | 0.00 | 32 | 1017.0 |
| 20260503190016 | 15 | 135 | 4.8 | 11.3 | 0.00 | 0.00 | 0.00 | 31 | 1017.1 |
| 20260503185016 | 15 | 248 | 3.2 | 8.0 | 0.00 | 0.00 | 0.00 | 32 | 1017.3 |
| 20260503184016 | 15 | 0.0 | 1.6 | 0.00 | 0.00 | 0.00 | 32 | 1017.3 | |
| 20260503183015 | 15 | 180 | 1.6 | 8.0 | 0.00 | 0.00 | 0.00 | 35 | 1017.4 |
| 20260503182036 | 15 | 203 | 3.2 | 8.0 | 0.00 | 0.00 | 0.00 | 36 | 1017.7 |
| 20260503181015 | 14 | 0.0 | 1.6 | 0.00 | 0.00 | 0.00 | 38 | 1017.8 | |
| 20260503180015 | 14 | 0.0 | 1.6 | 0.00 | 0.00 | 0.00 | 35 | 1017.8 | |
| 20260503175015 | 14 | 158 | 3.2 | 8.0 | 0.00 | 0.00 | 0.00 | 35 | 1018.0 |
| 20260503174015 | 13 | 248 | 1.6 | 6.4 | 0.00 | 0.00 | 0.00 | 39 | 1018.1 |
| 20260503173015 | 13 | 315 | 4.8 | 8.0 | 0.00 | 0.00 | 0.00 | 37 | 1018.1 |
| 20260503172015 | 13 | 270 | 4.8 | 11.3 | 0.00 | 0.00 | 0.00 | 37 | 1018.4 |
| 20260503171015 | 13 | 270 | 1.6 | 8.0 | 0.00 | 0.00 | 0.00 | 41 | 1018.5 |
| 20260503131017 | 6 | 0.0 | 0.0 | 0.00 | 0.00 | 0.00 | 61 | 1019.6 | |
| 20260503081016 | 2 | 0.0 | 0.0 | 0.00 | 0.00 | 0.00 | 84 | 1016.1 |